sat.trackr.live / text

‹ back to catalog

STARLINK-32506

NORAD 62167 · 2024-225E

PAYLOAD ACTIVE UNKNOWN

§ Identity

Operator
Country
US
Launch date
2024-11-30
Launch site
AFWTR
Launch vehicle
Mass (kg)
RCS (m²)

Purposes: comms

External: N2YO · Heavens-Above · Gunter

§ Orbital elements

Epoch: 2026-09-19T02:44:26.783232Z

Period
96.11 min
Inclination
70.0020°
Eccentricity
0.0003205
Mean motion
14.98335512 rev/d
Perigee alt
569.8 km
Apogee alt
574.3 km
Semi-major
6,950.2 km
B*
3.7729e-4
RAAN
36.9447°
Arg perigee
266.7748°
Mean anomaly
93.3044°
Rev number
9,884

§ Raw data

STARLINK-325061 62167U 24225E   26262.11419888  .00004412  00000+0  37729-3 0  99962 62167  70.0020  36.9447 0003205 266.7748  93.3044 14.98335512 98849

JSON: /api/v1/satellites/62167 · /tle

For live sub-satellite position, see the globe view (requires WebGL).

§ Visibility from observer

Set your observer location to see the next 7 days of passes ≥ 10°. The values pass through the URL so the page stays shareable.

No JS? Fill the form by hand. The geolocation button needs JavaScript.